Olive Branch, MS

12:18 PM CST on November 21, 2017 (GMT -0600)
Olive Branch

Weather History for KOLV - June, 2013

Change the Weather History Date:

Tuesday, June 11, 2013

  Actual Average (KMEM) Record (KMEM)
Temperature  
Mean Temperature 82 °F -  
Max Temperature 93 °F 88 °F 103 °F (1953)
Min Temperature 71 °F 68 °F 53 °F (1966)
Cooling Degree Days 17    
Growing Degree Days 32 (Base 50)    
Moisture  
Dew Point 73 °F    
Average Humidity 80    
Maximum Humidity 100    
Minimum Humidity 46    
Precipitation  
Precipitation 0.00 in - - ()
Sea Level Pressure  
Sea Level Pressure 29.99 in    
Wind  
Wind Speed 8 mph (SSW)    
Max Wind Speed 14 mph    
Max Gust Speed 17 mph    
Visibility 10 miles    
Events      
Averages and records for this station are not official NWS values.
T = Trace of Precipitation, MM = Missing Value Source: NWS Daily Summary

Daily Weather History Graph

Daily Weather History Graph

Search for Another Location

Airport or City:

Trip Planner

Search our weather history database for the weather conditions in past years. The results will help you decide how hot, cold, wet, or windy it might be!

Date:

Astronomy

Jun. 11, 2013 Rise Set
Actual Time 5:44 AM CDT 8:13 PM CDT
Civil Twilight 5:15 AM CDT 8:42 PM CDT
Nautical Twilight 4:38 AM CDT 9:19 PM CDT
Astronomical Twilight 3:58 AM CDT 9:59 PM CDT
Moon 8:23 AM CDT (6/11) 10:21 PM CDT (6/11)
Length of Visible Light 15h 27m
Length of Day
14h 28m
Waxing Crescent, 8% of the Moon is Illuminated
Jun 11
Waxing Crescent
Jun 16
First Quarter
Jun 23
Full
Jun 29
Last Quarter
Jul 8
New

Hourly Weather History & Observations

Time (CDT) Temp. Heat Index Dew Point Humidity Pressure Visibility Wind Dir Wind Speed Gust Speed Precip Events Conditions
12:15 AM 73.4 °F - 73.4 °F 100% 29.95 in 10.0 mi South 6.9 mph - 0.00 in   Clear
12:35 AM 73.4 °F - 73.4 °F 100% 29.95 in 10.0 mi South 6.9 mph - 0.00 in   Clear
12:55 AM 73.4 °F - 73.4 °F 100% 29.95 in 8.0 mi South 8.1 mph - 0.00 in   Clear
1:15 AM 73.4 °F - 73.4 °F 100% 29.95 in 9.0 mi South 8.1 mph - 0.00 in   Clear
1:35 AM 71.6 °F - 71.6 °F 100% 29.95 in 10.0 mi South 8.1 mph - 0.00 in   Clear
1:55 AM 71.6 °F - 71.6 °F 100% 29.95 in 10.0 mi South 8.1 mph - 0.00 in   Clear
2:15 AM 71.6 °F - 71.6 °F 100% 29.95 in 8.0 mi SSW 6.9 mph - 0.00 in   Clear
2:35 AM 73.4 °F - 73.4 °F 100% 29.95 in 9.0 mi SSW 6.9 mph - 0.00 in   Clear
2:55 AM 71.6 °F - 71.6 °F 100% 29.95 in 10.0 mi South 6.9 mph - 0.00 in   Clear
6:50 AM 73.4 °F - 73.4 °F 100% 30.03 in 10.0 mi SW 5.8 mph - N/A   Clear
8:00 AM 78.8 °F - 75.2 °F 89% 30.04 in 10.0 mi WSW 8.1 mph - N/A   Clear
8:50 AM 82.4 °F 89.5 °F 75.2 °F 79% 30.05 in 10.0 mi WSW 5.8 mph - N/A   Partly Cloudy
9:50 AM 84.2 °F 92.3 °F 75.2 °F 74% 30.04 in 10.0 mi WSW 9.2 mph - N/A   Partly Cloudy
10:50 AM 87.8 °F 97.6 °F 75.2 °F 66% 30.04 in 10.0 mi WSW 13.8 mph - N/A   Partly Cloudy
11:50 AM 89.6 °F 99.8 °F 75.2 °F 62% 30.05 in 10.0 mi WSW 8.1 mph - N/A   Partly Cloudy
12:50 PM 91.4 °F 100.1 °F 73.4 °F 55% 30.04 in 10.0 mi West 6.9 mph - N/A   Partly Cloudy
1:50 PM 91.4 °F 100.1 °F 73.4 °F 55% 30.01 in 10.0 mi SSW 10.4 mph - N/A   Scattered Clouds
2:50 PM 93.2 °F 105.0 °F 75.2 °F 56% 30.00 in 10.0 mi SW 9.2 mph 17.3 mph N/A   Scattered Clouds
3:55 PM 93.2 °F 102.4 °F 73.4 °F 52% 29.99 in 10.0 mi SSW 9.2 mph - N/A   Scattered Clouds
4:55 PM 93.2 °F 98.8 °F 69.8 °F 46% 29.98 in 10.0 mi SW 11.5 mph - N/A   Scattered Clouds
5:55 PM 91.4 °F 95.4 °F 68.0 °F 46% 29.98 in 10.0 mi SW 10.4 mph - N/A   Scattered Clouds
6:55 PM 91.4 °F 95.4 °F 68.0 °F 46% 29.98 in 10.0 mi SW 10.4 mph - N/A   Scattered Clouds
7:55 PM 86.0 °F 90.4 °F 69.8 °F 58% 29.98 in 10.0 mi SW 5.8 mph - N/A   Scattered Clouds
9:35 PM 78.8 °F - 73.4 °F 83% 29.99 in 9.0 mi SSW 5.8 mph - 0.00 in   Clear
9:55 PM 78.8 °F - 73.4 °F 83% 29.99 in 10.0 mi SSW 5.8 mph - 0.00 in   Clear
10:15 PM 80.6 °F 86.2 °F 75.2 °F 84% 30.00 in 9.0 mi SSW 8.1 mph - 0.00 in   Clear
10:35 PM 80.6 °F 86.2 °F 75.2 °F 84% 30.01 in 10.0 mi SW 5.8 mph - 0.00 in   Clear
10:55 PM 80.6 °F 86.2 °F 75.2 °F 84% 30.01 in 10.0 mi SW 4.6 mph - 0.00 in   Clear
11:15 PM 78.8 °F - 75.2 °F 89% 30.01 in 9.0 mi South 5.8 mph - 0.00 in   Clear
11:35 PM 77.0 °F - 75.2 °F 94% 30.01 in 10.0 mi South 5.8 mph - 0.00 in   Clear
11:55 PM 75.2 °F - 75.2 °F 100% 30.02 in 10.0 mi South 5.8 mph - 0.00 in   Clear